Regional Weather Roundup
Issued by NWS

Home | Current Version | Previous Version | Text Only | Print | Product List | Glossary Off
Versions: 1 2 3 4 5 6 7 8 9 10 11 12 13 14 15 16 17 18 19 20 21 22 23 24 25 26 27 28 29 30 31 32 33 34 35 36 37 38 39 40 41 42 43 44 45

000
ASUS43 KDMX 210907
RWRIA

WEATHER ROUNDUP FOR IOWA
NATIONAL WEATHER SERVICE DES MOINES IA
400 AM CDT TUE OCT 21 2014

NOTE: "FAIR" INDICATES FEW OR NO CLOUDS BELOW 12,000 FEET WITH NO
SIGNIFICANT WEATHER AND/OR OBSTRUCTIONS TO VISIBILITY.

* - THESE STATIONS ARE NOT NWS STATIONS...THUS NOT UNDER NWS
QUALITY CONTROL.  THEY ALSO DO NOT REPORT WEATHER SUCH
AS PRECIPITATION OR FOG.

IAZ001>003-012>014-020>022-031>034-043>046-211000-
   NORTHWEST IOWA

CITY           SKY/WX    TMP DP  RH WIND       PRES   REMARKS
CARROLL *      MOCLDY    36  34  93 CALM      30.09R
CHEROKEE *     CLEAR     36  36 100 NE3       30.09S
DENISON *      CLEAR     36  36 100 CALM      30.07S
LE MARS *      CLEAR     36  34  93 CALM      30.08F
ORANGE CITY *  CLEAR     46  37  71 E3        30.08S
SHELDON *      CLEAR     36  34  93 E3        30.08R
SIOUX CITY     CLEAR     36  34  92 CALM      30.08S
SPENCER        CLEAR     34  31  88 NE3       30.10S
STORM LAKE *   CLEAR     45  41  87 E6        30.09S
$$

IAZ055>058-069>071-079>083-090>094-211000-
   SOUTHWEST IOWA

CITY           SKY/WX    TMP DP  RH WIND       PRES   REMARKS
ATLANTIC *     CLEAR     36  34  93 CALM      30.09S
AUDUBON *      CLEAR     36  30  80 CALM      30.10S
CLARINDA *     CLEAR     36  36 100 CALM      30.11R
COUNCIL BLFS * CLEAR     46  41  81 CALM      30.07S
CRESTON *      CLEAR     46  39  76 N3        30.09S
HARLAN  *      CLEAR     37  37 100 CALM      30.12S
LAMONI         CLEAR     47  39  74 N5        30.08S
RED OAK *      CLEAR     37  36  93 CALM      30.09S
SHENANDOAH *   CLEAR     37  37 100 CALM      30.10S
$$

IAZ047>049-059>061-072>074-084-211000-
   CENTRAL IOWA

CITY           SKY/WX    TMP DP  RH WIND       PRES   REMARKS
AMES           CLEAR     41  37  86 N3        30.09R
ANKENY *       CLEAR     39  39 100 NE3       30.09R
CHARITON *     PTCLDY    45  39  81 NW6       30.08S
DES MOINES     CLEAR     46  42  86 N3        30.09R
GRINNELL*      CLEAR     45  39  81 NE5       30.09R
KNOXVILLE *    CLEAR     45  41  87 N3        30.07R
MARSHALLTOWN   CLEAR     39  36  89 NE3       30.09R
PELLA *        CLEAR     45  41  87 CALM      30.09R
PERRY *          N/A     37  37 100 CALM      30.09R
$$

IAZ004>006-015-016-023>025-035-036-211000-
   NORTH CENTRAL IOWA

CITY           SKY/WX    TMP DP  RH WIND       PRES   REMARKS
ALGONA *       CLEAR     39  37  93 NE3       30.11R
CLARION *      CLEAR     39  39 100 E7        30.09S WCI  34
ESTHERVILLE    CLEAR     35  32  88 NE5       30.10S WCI  31
FORT DODGE *   CLEAR     37  34  87 CALM      30.10R
MASON CITY     CLEAR     34  34 100 N3        30.12S
FOREST CITY *  CLEAR     37  37 100 CALM      30.11R
IOWA FALLS *     N/A     41  37  87 NE3       30.10S
$$

IAZ007>011-017>019-026>030-037>042-050>054-066-211000-
   NORTHEAST IOWA

CITY           SKY/WX    TMP DP  RH WIND       PRES   REMARKS
CEDAR RAPIDS   CLEAR     40  39  97 N3        30.09R
CHARLES CITY * CLEAR     39  37  93 NE6       30.12R WCI  35
CLINTON *      CLEAR     39  37  93 N8        30.10S WCI  34
DECORAH *      PTCLDY    39  37  93 CALM      30.10S
DUBUQUE        CLEAR     42  38  85 N6        30.09S
MONTICELLO *   CLEAR     36  36 100 CALM      30.09S
OELWEIN *      CLEAR     39  37  93 NE5       30.11R
WATERLOO       CLEAR     35  33  92 NW3       30.10R
$$

IAZ064-065-067-068-078-211000-
   EAST CENTRAL IOWA

CITY           SKY/WX    TMP DP  RH WIND       PRES   REMARKS
DAVENPORT      CLEAR     38  35  89 N3        30.08S
IOWA CITY      CLEAR     40  39  97 CALM      30.10R
MT. PLEASANT * CLEAR     41  39  93 CALM      30.08R
MUSCATINE *    CLEAR     41  39  93 N5        30.09R
QUAD CITIES    CLEAR     39  37  92 CALM      30.08R
$$

IAZ062-063-075>077-085>089-095>099-211000-
   SOUTHEAST IOWA

CITY           SKY/WX    TMP DP  RH WIND       PRES   REMARKS
BURLINGTON     CLEAR     46  41  82 CALM      30.06S
FAIRFIELD *    CLEAR     41  36  81 NE7       30.07S
FORT MADISON * CLEAR     45  43  93 CALM      30.07S
KEOKUK *       CLEAR     46  43  87 NE3       30.05S
OSKALOOSA *      N/A     41  39  93 NE7       30.08R
CENTERVILLE *  CLEAR     41  39  93 NW3       30.08S
OTTUMWA        CLEAR     42  38  85 N5        30.07S
WASHINGTON *   CLEAR     43  41  93 NE6       30.08R
$$

ABBREVIATIONS USED IN REMARKS
   TC - TEMPERATURES IN CELSIUS
  WCI - WIND CHILL INDEX
   HX - HEAT INDEX
  VSB - VISIBILITY
$$



USA.gov is the U.S. government's official web portal to all federal, state and local government web resources and services.